Starlink 6304

operational
NORAD ID: 56778 Int'l Des: 2023-078 Owner: SPXS Country: US Constellation: starlink
LEOCIRCULAR

About Starlink 6304

Description loading...

Live Position

Loading 3D Globe...

Upcoming Passes

Altitude History

Altitude vs Time

uPlot chart will show altitude changes over time

Two-Line Element Set

1 56778U 23078M 25306.33838263 .00000023 00000-0 97642-5 0 9993
2 56778 69.9977 285.7078 0002868 269.0676 91.0154 14.98327969134094
Epoch: Nov 2, 2025 • Age: 30 hours

Current Status

Altitude 576.9 km
Velocity 7.57 km/s
Sub-Earth Point -13.84°S, 16.82°E
Launch Date May 31, 2023
Age 2.4 years
Type internet

Technical Details

Classification Payload
Mass 305.00 kg
Dry Mass 290.00 kg
Total Mass 305.00 kg
Length 0.20 m
Diameter 2.80 m
Span 9.00 m
Shape Box + pan
Manufacturer SPXS
Bus Type Starlink
Phase Status In Orbit
Owner/State SPXS/US

Large Constellations

Loading constellations...